User: anonymous   Login
Location: Unspecified
(0.0000°N, 0.0000°E)
Time: 04:53:04
(UTC+00:00)
Language:

OBJECT Z - Orbit

View from above orbital plane
View from above orbital plane
View from above satellite
View from above satellite

Ground track
Ground track

The orbit data is extracted from the following two-line orbital elements,

1 43134U 18004Z   23324.31191463  .14866072  24853-5  28500-3 0  9999
2 43134  97.2799  52.0533 0009686 279.7455  80.2754 16.46797629326864
Epoch (UTC): 20 November 2023 07:29:09
Eccentricity: 0.0009686
inclination: 97.2799°
perigee height: 141 km
apogee height: 154 km
right ascension of ascending node: 52.0533°
argument of perigee: 279.7455°
revolutions per day: 16.46797629
mean anomaly at epoch: 80.2754°
orbit number at epoch: 32686

The dashed part of the orbit path shows where the satellite is in the earth's shadow,  

DLR